Location: La Pernelle
(49.6188°N, 1.2999°W)
Time: 13:28:59
(UTC+00:00)

Cosmos 1340 - Pass Details

Date: 12 June 2021
Orbit: 498 x 504 km, 81.2° (Epoch: 04 August)

Event Time Altitude Azimuth Distance (km) Brightness Sun altitude
Exits shadow 22:10:27 20° 137° (SE) 1,194 3.9 -12.8°
Maximum altitude 22:12:10 30° 93° (E) 933 3.7 -13.0°
Drops below altitude 10° 22:15:29 10° 32° (NNE) 1,726 5.8 -13.2°
Sets 22:17:47 0° 21° (NNE) 2,618 7.0 -13.4°
